CW2285 Weather Reports


Display with metric or nautical units.
time (UTC)temp
F
wind
direction
speed
MPH
gust
MPH
rain 1hr
in
rain 24hr
in
rain mn
in
humidity
%
barometer
mb
20260502235002 97 103 9.0 15.0 0.00 0.00 0.00 9 1004.4
20260502234502 97 130 7.0 10.0 0.00 0.00 0.00 8 1004.4
20260502234003 98 121 8.0 12.0 0.00 0.00 0.00 9 1004.6
20260502233502 98 104 7.0 13.0 0.00 0.00 0.00 8 1004.6
20260502232503 97 131 8.0 14.0 0.00 0.00 0.00 9 1004.8
20260502232003 97 97 11.0 17.0 0.00 0.00 0.00 9 1004.8
20260502231502 97 101 11.0 15.0 0.00 0.00 0.00 9 1004.8
20260502231003 97 124 9.0 15.0 0.00 0.00 0.00 9 1004.8
20260502230503 96 102 10.0 14.0 0.00 0.00 0.00 9 1004.8
20260502230003 96 106 7.0 13.0 0.00 0.00 0.00 9 1004.8
20260502225503 97 140 7.0 12.0 0.00 0.00 0.00 8 1004.9
20260502225003 97 99 9.0 13.0 0.00 0.00 0.00 8 1005.0
20260502224503 97 120 10.0 15.0 0.00 0.00 0.00 9 1005.2
20260502224003 97 135 8.0 13.0 0.00 0.00 0.00 9 1005.3
20260502223003 97 128 7.0 15.0 0.00 0.00 0.00 9 1005.4
20260502222503 99 129 7.0 13.0 0.00 0.00 0.00 9 1005.5
20260502222003 98 137 6.0 12.0 0.00 0.00 0.00 9 1005.7
20260502221503 98 101 9.0 17.0 0.00 0.00 0.00 9 1005.8
20260502221003 98 117 9.0 15.0 0.00 0.00 0.00 9 1005.9
20260502220503 98 163 8.0 12.0 0.00 0.00 0.00 9 1005.9
20260502215003 96 153 3.0 6.0 0.00 0.00 0.00 10 1005.9
20260502214503 97 134 6.0 10.0 0.00 0.00 0.00 9 1006.0
20260502213503 98 117 10.0 16.0 0.00 0.00 0.00 9 1006.3
20260502213003 97 125 5.0 12.0 0.00 0.00 0.00 10 1006.4
20260502212503 98 109 9.0 15.0 0.00 0.00 0.00 8 1006.4
20260502212004 98 124 7.0 15.0 0.00 0.00 0.00 9 1006.4
20260502211503 97 115 3.0 12.0 0.00 0.00 0.00 9 1006.4
20260502211003 98 125 7.0 12.0 0.00 0.00 0.00 9 1006.4
20260502210503 97 117 5.0 12.0 0.00 0.00 0.00 10 1006.5
20260502210003 98 117 9.0 16.0 0.00 0.00 0.00 9 1006.6
20260502205503 97 122 6.0 16.0 0.00 0.00 0.00 9 1006.7
20260502204503 98 138 7.0 14.0 0.00 0.00 0.00 9 1006.9
20260502204003 97 107 6.0 10.0 0.00 0.00 0.00 9 1006.9
20260502203503 96 123 5.0 12.0 0.00 0.00 0.00 9 1007.0
20260502203003 96 107 5.0 12.0 0.00 0.00 0.00 9 1007.0
20260502202503 96 144 5.0 12.0 0.00 0.00 0.00 9 1007.2
20260502202003 97 114 7.0 13.0 0.00 0.00 0.00 8 1007.4
20260502201502 96 116 6.0 10.0 0.00 0.00 0.00 8 1007.4
20260502200002 97 86 6.0 12.0 0.00 0.00 0.00 10 1007.5
20260502195503 96 109 5.0 8.0 0.00 0.00 0.00 9 1007.8
20260502195003 96 136 6.0 12.0 0.00 0.00 0.00 9 1007.9
20260502194503 95 171 3.0 7.0 0.00 0.00 0.00 10 1007.9
20260502194003 96 131 1.0 8.0 0.00 0.00 0.00 7 1007.9
20260502193503 96 46 6.0 10.0 0.00 0.00 0.00 9 1008.0
20260502193003 96 137 5.0 12.0 0.00 0.00 0.00 8 1008.0
20260502192003 96 173 3.0 8.0 0.00 0.00 0.00 9 1008.0
20260502191503 96 96 5.0 12.0 0.00 0.00 0.00 9 1008.1
20260502190503 95 67 3.0 7.0 0.00 0.00 0.00 9 1008.5
20260502190004 94 203 3.0 9.0 0.00 0.00 0.00 9 1008.5
20260502185503 95 118 8.0 13.0 0.00 0.00 0.00 8 1008.5
20260502185004 94 165 2.0 9.0 0.00 0.00 0.00 9 1008.5
20260502184503 94 105 6.0 12.0 0.00 0.00 0.00 9 1008.6
20260502183502 94 105 4.0 10.0 0.00 0.00 0.00 9 1008.7
20260502183003 93 96 5.0 9.0 0.00 0.00 0.00 9 1008.7
20260502182503 94 206 5.0 8.0 0.00 0.00 0.00 9 1008.8
20260502182004 93 171 3.0 6.0 0.00 0.00 0.00 10 1008.8
20260502181003 94 109 3.0 9.0 0.00 0.00 0.00 9 1009.0
20260502180503 94 146 3.0 7.0 0.00 0.00 0.00 11 1009.0
20260502170503 90 191 1.0 3.0 0.00 0.00 0.00 14 1009.2
20260502164004 88 227 2.0 5.0 0.00 0.00 0.00 18 1009.6
20260502163503 88 270 2.0 3.0 0.00 0.00 0.00 19 1009.6
20260502163003 87 273 2.0 5.0 0.00 0.00 0.00 22 1009.6
20260502162503 87 238 3.0 7.0 0.00 0.00 0.00 22 1009.6
20260502162003 86 242 4.0 7.0 0.00 0.00 0.00 23 1009.6
20260502161503 86 270 5.0 8.0 0.00 0.00 0.00 24 1009.6
20260502161003 86 266 6.0 8.0 0.00 0.00 0.00 24 1009.6
20260502151503 80 255 6.0 12.0 0.00 0.00 0.00 25 1009.5
20260502151003 79 247 6.0 12.0 0.00 0.00 0.00 25 1009.6
20260502150503 79 250 6.0 12.0 0.00 0.00 0.00 25 1009.6
20260502130503 71 292 2.0 5.0 0.00 0.00 0.00 30 1008.5
20260502123503 71 282 2.0 3.0 0.00 0.00 0.00 30 1008.3
20260502123004 71 284 3.0 5.0 0.00 0.00 0.00 32 1008.3
20260502122504 70 274 3.0 6.0 0.00 0.00 0.00 33 1008.3
20260502122003 70 274 3.0 3.0 0.00 0.00 0.00 34 1008.1
20260502121503 70 284 2.0 3.0 0.00 0.00 0.00 35 1008.1
20260502121004 70 270 2.0 5.0 0.00 0.00 0.00 36 1008.1
20260502120503 70 267 2.0 5.0 0.00 0.00 0.00 37 1008.1
20260502115503 71 314 1.0 3.0 0.00 0.00 0.00 37 1008.1
20260502115003 72 274 2.0 7.0 0.00 0.00 0.00 37 1008.0
20260502114503 72 252 5.0 9.0 0.00 0.00 0.00 37 1008.0
20260502114004 72 284 3.0 6.0 0.00 0.00 0.00 36 1008.0
20260502113503 73 267 3.0 6.0 0.00 0.00 0.00 36 1008.0
20260502113004 73 272 3.0 8.0 0.00 0.00 0.00 34 1008.0
20260502112504 73 256 6.0 8.0 0.00 0.00 0.00 34 1008.0
20260502112003 73 259 3.0 7.0 0.00 0.00 0.00 34 1008.0
20260502111504 73 254 3.0 5.0 0.00 0.00 0.00 35 1008.0
20260502110503 73 243 5.0 9.0 0.00 0.00 0.00 33 1008.0
20260502110003 73 249 4.0 6.0 0.00 0.00 0.00 32 1008.0
20260502105504 74 277 2.0 3.0 0.00 0.00 0.00 29 1008.0
20260502105003 75 249 2.0 3.0 0.00 0.00 0.00 30 1008.0
20260502104504 74 279 2.0 3.0 0.00 0.00 0.00 29 1007.9
20260502104003 75 282 0.0 5.0 0.00 0.00 0.00 30 1007.8
20260502103503 76 256 3.0 7.0 0.00 0.00 0.00 30 1007.6
20260502103003 76 302 2.0 3.0 0.00 0.00 0.00 28 1007.6
20260502102503 76 302 1.0 2.0 0.00 0.00 0.00 28 1007.7
20260502102004 76 302 0.0 1.0 0.00 0.00 0.00 27 1007.8
20260502101504 76 302 2.0 3.0 0.00 0.00 0.00 26 1007.8
20260502101003 77 302 1.0 3.0 0.00 0.00 0.00 26 1007.7
20260502100503 77 280 3.0 9.0 0.00 0.00 0.00 26 1007.6
20260502091503 78 294 6.0 13.0 0.00 0.00 0.00 31 1007.7
20260502090503 79 274 9.0 14.0 0.00 0.00 0.00 29 1007.5
20260502071504 81 283 5.0 12.0 0.00 0.00 0.00 27 1007.7
20260502071003 81 288 5.0 12.0 0.00 0.00 0.00 27 1007.8
20260502070504 81 276 7.0 12.0 0.00 0.00 0.00 28 1007.7
20260502070003 81 299 7.0 15.0 0.00 0.00 0.00 29 1007.6
20260502065503 81 287 7.0 16.0 0.00 0.00 0.00 30 1007.6
20260502065003 81 296 6.0 14.0 0.00 0.00 0.00 29 1007.6
20260502064503 81 299 7.0 15.0 0.00 0.00 0.00 30 1007.6
20260502064003 81 275 7.0 14.0 0.00 0.00 0.00 31 1007.6
20260502063503 81 278 7.0 14.0 0.00 0.00 0.00 30 1007.7
20260502063004 81 284 8.0 13.0 0.00 0.00 0.00 31 1007.6
20260502062504 81 264 7.0 13.0 0.00 0.00 0.00 29 1007.6
20260502062003 81 286 7.0 15.0 0.00 0.00 0.00 31 1007.5
20260502061503 80 294 9.0 17.0 0.00 0.00 0.00 33 1007.5
20260502061003 80 282 10.0 21.0 0.00 0.00 0.00 34 1007.4
20260502060003 80 298 10.0 20.0 0.00 0.00 0.00 35 1007.1
20260502055504 81 308 9.0 18.0 0.00 0.00 0.00 34 1007.3
20260502055004 80 300 13.0 22.0 0.00 0.00 0.00 34 1007.3
20260502054503 80 284 9.0 17.0 0.00 0.00 0.00 36 1007.4
20260502053504 81 299 12.0 20.0 0.00 0.00 0.00 36 1007.5
20260502053004 81 290 11.0 20.0 0.00 0.00 0.00 35 1007.4
20260502052503 81 282 10.0 20.0 0.00 0.00 0.00 36 1007.2
20260502052004 81 285 10.0 20.0 0.00 0.00 0.00 36 1007.0
20260502051503 81 296 11.0 20.0 0.00 0.00 0.00 35 1007.0
20260502051003 81 294 9.0 21.0 0.00 0.00 0.00 35 1007.0
20260502050503 82 288 10.0 20.0 0.00 0.00 0.00 35 1007.0
20260502050003 82 296 12.0 23.0 0.00 0.00 0.00 34 1007.0
20260502045503 82 308 13.0 21.0 0.00 0.00 0.00 33 1006.9
20260502044504 83 313 12.0 21.0 0.00 0.00 0.00 31 1006.9
20260502044004 84 290 9.0 21.0 0.00 0.00 0.00 29 1006.8
20260502043503 84 299 11.0 22.0 0.00 0.00 0.00 27 1006.7
20260502043004 84 299 10.0 20.0 0.00 0.00 0.00 27 1006.5
20260502042504 84 310 9.0 20.0 0.00 0.00 0.00 26 1006.4
20260502042003 85 307 9.0 20.0 0.00 0.00 0.00 25 1006.4
20260502041503 85 293 10.0 20.0 0.00 0.00 0.00 24 1006.4
20260502041003 85 304 10.0 20.0 0.00 0.00 0.00 25 1006.4
20260502040003 85 305 9.0 20.0 0.00 0.00 0.00 25 1006.2
20260502035503 85 310 8.0 17.0 0.00 0.00 0.00 26 1006.0
20260502035003 85 287 9.0 20.0 0.00 0.00 0.00 26 1006.0
20260502034503 85 306 11.0 22.0 0.00 0.00 0.00 25 1005.9
20260502034003 85 295 12.0 21.0 0.00 0.00 0.00 25 1005.9
20260502033003 86 292 9.0 18.0 0.00 0.00 0.00 25 1005.8
20260502032503 86 293 6.0 16.0 0.00 0.00 0.00 24 1005.7
20260502032004 86 301 9.0 17.0 0.00 0.00 0.00 23 1005.6
20260502031004 86 320 6.0 15.0 0.00 0.00 0.00 22 1005.5
20260502030003 87 306 6.0 12.0 0.00 0.00 0.00 20 1005.5
20260502025504 87 321 5.0 16.0 0.00 0.00 0.00 19 1005.6
20260502025003 88 301 8.0 15.0 0.00 0.00 0.00 19 1005.5
20260502024503 88 297 9.0 16.0 0.00 0.00 0.00 18 1005.4
20260502024004 88 298 9.0 16.0 0.00 0.00 0.00 18 1005.4
20260502023503 88 295 10.0 17.0 0.00 0.00 0.00 19 1005.4
20260502023003 89 286 11.0 20.0 0.00 0.00 0.00 19 1005.4
20260502022003 89 300 8.0 17.0 0.00 0.00 0.00 20 1005.2
20260502021503 89 298 9.0 20.0 0.00 0.00 0.00 20 1005.0
20260502021003 90 289 8.0 18.0 0.00 0.00 0.00 20 1005.1
20260502020003 90 294 11.0 17.0 0.00 0.00 0.00 20 1004.9
20260502015503 91 294 9.0 18.0 0.00 0.00 0.00 19 1004.9
20260502015003 91 290 10.0 17.0 0.00 0.00 0.00 20 1004.9
20260502014003 92 290 9.0 15.0 0.00 0.00 0.00 18 1004.9
20260502013004 93 290 10.0 16.0 0.00 0.00 0.00 19 1004.9
20260502012503 93 305 11.0 18.0 0.00 0.00 0.00 18 1004.8
20260502012004 94 288 10.0 17.0 0.00 0.00 0.00 18 1004.8
20260502011503 94 281 10.0 20.0 0.00 0.00 0.00 18 1004.8
20260502011003 94 280 9.0 15.0 0.00 0.00 0.00 17 1004.8
20260502010503 94 285 13.0 20.0 0.00 0.00 0.00 17 1004.8
20260502010003 94 290 12.0 20.0 0.00 0.00 0.00 17 1004.8
20260502005003 95 282 11.0 16.0 0.00 0.00 0.00 17 1004.6
20260502004503 95 287 11.0 18.0 0.00 0.00 0.00 17 1004.6
20260502003503 96 288 9.0 20.0 0.00 0.00 0.00 17 1004.5
20260502003003 96 261 7.0 17.0 0.00 0.00 0.00 17 1004.4
20260502002503 96 289 9.0 17.0 0.00 0.00 0.00 16 1004.5
20260502001504 97 275 7.0 17.0 0.00 0.00 0.00 16 1004.4
20260502001003 97 281 7.0 16.0 0.00 0.00 0.00 16 1004.4
20260502000503 98 297 8.0 15.0 0.00 0.00 0.00 16 1004.4
20260501235503 98 271 4.0 12.0 0.00 0.00 0.00 14 1004.5